contact:dominique.lefevre@mio.osupytheas.fr, maurice.libes@osupytheas.fr, didier.mallarino@osupytheas.fr
Project:EMSO http://www.emso-fr.org/EMSO-France
Depth: 2436.0 m
Title:EMSO Ligure Ouest : Data MII capteur MICROCAT
DateTime_Computer,Latitude,Longitude,Temperature,Conductivity,Pressure,DateTime_Instrument
DateTime_Computer,Latitude,Longitude,degC,S m-1,dbar,DateTime_Instrument
2017-11-07T00:01:21Z,42.805,6.029,13.2968,4.59983,2471.987,2017-11-07T02:02:47Z
2017-11-07T00:04:24Z,42.805,6.029,13.2968,4.59985,2472.047,2017-11-07T02:05:50Z
2017-11-07T00:07:26Z,42.805,6.029,13.2967,4.59981,2471.987,2017-11-07T02:08:53Z
2017-11-07T00:10:29Z,42.805,6.029,13.2967,4.59995,2472.024,2017-11-07T02:11:56Z
2017-11-07T00:13:32Z,42.805,6.029,13.2978,4.59994,2471.979,2017-11-07T02:14:59Z
2017-11-07T00:16:35Z,42.805,6.029,13.2974,4.59989,2472.024,2017-11-07T02:18:02Z
2017-11-07T00:19:38Z,42.805,6.029,13.2968,4.59992,2471.979,2017-11-07T02:21:05Z
2017-11-07T00:22:41Z,42.805,6.029,13.2973,4.59993,2472.002,2017-11-07T02:24:07Z
2017-11-07T00:25:44Z,42.805,6.029,13.2968,4.59975,2471.942,2017-11-07T02:27:10Z
2017-11-07T00:28:47Z,42.805,6.029,13.2970,4.59986,2471.942,2017-11-07T02:30:13Z
2017-11-07T00:31:50Z,42.805,6.029,13.2966,4.59980,2471.979,2017-11-07T02:33:16Z
2017-11-07T00:34:52Z,42.805,6.029,13.2965,4.59983,2471.979,2017-11-07T02:36:19Z
2017-11-07T00:37:55Z,42.805,6.029,13.2986,4.59983,2471.979,2017-11-07T02:39:22Z
2017-11-07T00:40:58Z,42.805,6.029,13.2958,4.59981,2471.979,2017-11-07T02:42:25Z
2017-11-07T00:44:01Z,42.805,6.029,13.2973,4.59982,2471.957,2017-11-07T02:45:28Z
2017-11-07T00:47:04Z,42.805,6.029,13.2968,4.59988,2471.957,2017-11-07T02:48:31Z
2017-11-07T00:50:07Z,42.805,6.029,13.2960,4.59979,2471.942,2017-11-07T02:51:34Z
2017-11-07T00:53:10Z,42.805,6.029,13.2970,4.59978,2471.942,2017-11-07T02:54:36Z
2017-11-07T00:56:13Z,42.805,6.029,13.2983,4.59979,2471.934,2017-11-07T02:57:39Z
2017-11-07T00:59:16Z,42.805,6.029,13.2976,4.59981,2471.979,2017-11-07T03:00:42Z
2017-11-07T01:02:18Z,42.805,6.029,13.2956,4.59981,2471.957,2017-11-07T03:03:45Z
2017-11-07T01:05:21Z,42.805,6.029,13.2965,4.59974,2471.934,2017-11-07T03:06:48Z
2017-11-07T01:08:24Z,42.805,6.029,13.2956,4.59974,2471.979,2017-11-07T03:09:51Z
2017-11-07T01:11:27Z,42.805,6.029,13.2964,4.59978,2471.934,2017-11-07T03:12:54Z
2017-11-07T01:14:30Z,42.805,6.029,13.2961,4.59973,2471.912,2017-11-07T03:15:57Z
2017-11-07T01:17:33Z,42.805,6.029,13.2970,4.59975,2471.934,2017-11-07T03:18:59Z
2017-11-07T01:20:36Z,42.805,6.029,13.2959,4.59974,2471.957,2017-11-07T03:22:02Z
2017-11-07T01:23:39Z,42.805,6.029,13.2973,4.59976,2471.942,2017-11-07T03:25:05Z
2017-11-07T01:26:42Z,42.805,6.029,13.2965,4.59978,2471.934,2017-11-07T03:28:08Z
2017-11-07T01:29:44Z,42.805,6.029,13.2954,4.59978,2471.934,2017-11-07T03:31:11Z
2017-11-07T01:32:47Z,42.805,6.029,13.2979,4.59982,2471.942,2017-11-07T03:34:14Z
2017-11-07T01:35:50Z,42.805,6.029,13.2963,4.59978,2471.957,2017-11-07T03:37:17Z
2017-11-07T01:38:53Z,42.805,6.029,13.2967,4.59981,2471.957,2017-11-07T03:40:20Z
2017-11-07T01:41:56Z,42.805,6.029,13.2964,4.59985,2471.934,2017-11-07T03:43:23Z
2017-11-07T01:44:59Z,42.805,6.029,13.2970,4.59981,2471.919,2017-11-07T03:46:25Z
2017-11-07T01:48:02Z,42.805,6.029,13.2982,4.59990,2471.934,2017-11-07T03:49:28Z
2017-11-07T01:51:05Z,42.805,6.029,13.2960,4.59992,2471.919,2017-11-07T03:52:31Z
2017-11-07T01:54:07Z,42.805,6.029,13.2971,4.59975,2471.957,2017-11-07T03:55:34Z
2017-11-07T01:57:10Z,42.805,6.029,13.2961,4.59978,2471.957,2017-11-07T03:58:37Z
2017-11-07T02:00:13Z,42.805,6.029,13.2961,4.59972,2471.934,2017-11-07T04:01:40Z
2017-11-07T02:03:16Z,42.805,6.029,13.2956,4.59977,2471.942,2017-11-07T04:04:43Z
2017-11-07T02:06:19Z,42.805,6.029,13.2964,4.59982,2471.912,2017-11-07T04:07:46Z
2017-11-07T02:09:22Z,42.805,6.029,13.2977,4.59981,2471.919,2017-11-07T04:10:49Z
2017-11-07T02:12:25Z,42.805,6.029,13.2968,4.59979,2471.957,2017-11-07T04:13:51Z
2017-11-07T02:15:28Z,42.805,6.029,13.2965,4.59981,2471.897,2017-11-07T04:16:54Z
2017-11-07T02:18:31Z,42.805,6.029,13.2962,4.59979,2471.934,2017-11-07T04:19:57Z
2017-11-07T02:21:33Z,42.805,6.029,13.2967,4.59980,2471.866,2017-11-07T04:23:00Z
2017-11-07T02:24:36Z,42.805,6.029,13.2971,4.59982,2471.889,2017-11-07T04:26:03Z
2017-11-07T02:27:39Z,42.805,6.029,13.2966,4.59978,2471.912,2017-11-07T04:29:06Z
2017-11-07T02:30:42Z,42.805,6.029,13.2958,4.59977,2471.897,2017-11-07T04:32:09Z
2017-11-07T02:33:45Z,42.805,6.029,13.2976,4.59993,2471.934,2017-11-07T04:35:12Z
2017-11-07T02:36:48Z,42.805,6.029,13.2962,4.59982,2471.897,2017-11-07T04:38:15Z
2017-11-07T02:39:51Z,42.805,6.029,13.2964,4.59970,2471.874,2017-11-07T04:41:17Z
2017-11-07T02:42:54Z,42.805,6.029,13.2960,4.59979,2471.912,2017-11-07T04:44:20Z
2017-11-07T02:45:57Z,42.805,6.029,13.2961,4.59978,2471.912,2017-11-07T04:47:23Z
2017-11-07T02:48:59Z,42.805,6.029,13.2960,4.59973,2471.897,2017-11-07T04:50:26Z
2017-11-07T02:52:02Z,42.805,6.029,13.2963,4.59981,2471.889,2017-11-07T04:53:29Z
2017-11-07T02:55:05Z,42.805,6.029,13.2960,4.59969,2471.866,2017-11-07T04:56:32Z
2017-11-07T02:58:08Z,42.805,6.029,13.2964,4.59975,2471.912,2017-11-07T04:59:35Z
2017-11-07T03:01:11Z,42.805,6.029,13.2961,4.59980,2471.874,2017-11-07T05:02:38Z
2017-11-07T03:04:14Z,42.805,6.029,13.2962,4.59972,2471.889,2017-11-07T05:05:41Z
2017-11-07T03:07:17Z,42.805,6.029,13.2955,4.59977,2471.912,2017-11-07T05:08:43Z
2017-11-07T03:10:20Z,42.805,6.029,13.2960,4.59980,2471.889,2017-11-07T05:11:46Z
2017-11-07T03:13:23Z,42.805,6.029,13.2964,4.59975,2471.889,2017-11-07T05:14:49Z
2017-11-07T03:16:25Z,42.805,6.029,13.2958,4.59984,2471.912,2017-11-07T05:17:52Z
2017-11-07T03:19:28Z,42.805,6.029,13.2958,4.59975,2471.889,2017-11-07T05:20:55Z
2017-11-07T03:22:31Z,42.805,6.029,13.2961,4.59975,2471.866,2017-11-07T05:23:58Z
2017-11-07T03:25:34Z,42.805,6.029,13.2958,4.59975,2471.897,2017-11-07T05:27:01Z
2017-11-07T03:28:37Z,42.805,6.029,13.2958,4.59972,2471.912,2017-11-07T05:30:04Z
2017-11-07T03:31:40Z,42.805,6.029,13.2963,4.59975,2471.874,2017-11-07T05:33:06Z
2017-11-07T03:34:43Z,42.805,6.029,13.2961,4.59980,2471.897,2017-11-07T05:36:09Z
2017-11-07T03:37:46Z,42.805,6.029,13.2966,4.59971,2471.919,2017-11-07T05:39:12Z
2017-11-07T03:40:49Z,42.805,6.029,13.2963,4.59978,2471.912,2017-11-07T05:42:15Z
2017-11-07T03:43:51Z,42.805,6.029,13.2963,4.59975,2471.912,2017-11-07T05:45:18Z
2017-11-07T03:46:54Z,42.805,6.029,13.2958,4.59972,2471.874,2017-11-07T05:48:21Z
2017-11-07T03:49:57Z,42.805,6.029,13.2955,4.59972,2471.866,2017-11-07T05:51:24Z
2017-11-07T03:53:00Z,42.805,6.029,13.2951,4.59968,2471.889,2017-11-07T05:54:27Z
2017-11-07T03:56:03Z,42.805,6.029,13.2965,4.59972,2471.912,2017-11-07T05:57:30Z
2017-11-07T03:59:06Z,42.805,6.029,13.2958,4.59972,2471.889,2017-11-07T06:00:32Z
2017-11-07T04:02:09Z,42.805,6.029,13.2961,4.59972,2471.889,2017-11-07T06:03:35Z
2017-11-07T04:05:12Z,42.805,6.029,13.2957,4.59973,2471.897,2017-11-07T06:06:38Z
2017-11-07T04:08:15Z,42.805,6.029,13.2954,4.59967,2471.912,2017-11-07T06:09:41Z
2017-11-07T04:11:17Z,42.805,6.029,13.2962,4.59968,2471.866,2017-11-07T06:12:44Z
2017-11-07T04:14:20Z,42.805,6.029,13.2958,4.59974,2471.912,2017-11-07T06:15:47Z
2017-11-07T04:17:23Z,42.805,6.029,13.2963,4.59978,2471.889,2017-11-07T06:18:50Z
2017-11-07T04:20:26Z,42.805,6.029,13.2959,4.59971,2471.889,2017-11-07T06:21:53Z
2017-11-07T04:23:29Z,42.805,6.029,13.2964,4.59972,2471.934,2017-11-07T06:24:56Z
2017-11-07T04:26:32Z,42.805,6.029,13.2953,4.59977,2471.889,2017-11-07T06:27:58Z
2017-11-07T04:29:35Z,42.805,6.029,13.2959,4.59974,2471.912,2017-11-07T06:31:01Z
2017-11-07T04:32:38Z,42.805,6.029,13.2958,4.59968,2471.912,2017-11-07T06:34:04Z
2017-11-07T04:35:40Z,42.805,6.029,13.2958,4.59979,2471.897,2017-11-07T06:37:07Z
2017-11-07T04:38:43Z,42.805,6.029,13.2953,4.59979,2471.912,2017-11-07T06:40:10Z
2017-11-07T04:41:46Z,42.805,6.029,13.2957,4.59978,2471.912,2017-11-07T06:43:13Z
2017-11-07T04:44:49Z,42.805,6.029,13.2956,4.59980,2471.919,2017-11-07T06:46:16Z
2017-11-07T04:47:52Z,42.805,6.029,13.2966,4.59972,2471.889,2017-11-07T06:49:19Z
2017-11-07T04:50:55Z,42.805,6.029,13.2962,4.59979,2471.957,2017-11-07T06:52:22Z
2017-11-07T04:53:58Z,42.805,6.029,13.2968,4.59972,2471.934,2017-11-07T06:55:24Z
2017-11-07T04:57:01Z,42.805,6.029,13.2968,4.59971,2471.942,2017-11-07T06:58:27Z
2017-11-07T05:00:04Z,42.805,6.029,13.2957,4.59973,2471.919,2017-11-07T07:01:30Z
2017-11-07T05:03:06Z,42.805,6.029,13.2951,4.59975,2471.934,2017-11-07T07:04:33Z
2017-11-07T05:06:09Z,42.805,6.029,13.2971,4.59972,2471.934,2017-11-07T07:07:36Z
2017-11-07T05:09:12Z,42.805,6.029,13.2956,4.59977,2471.919,2017-11-07T07:10:39Z
2017-11-07T05:12:15Z,42.805,6.029,13.2964,4.59972,2471.964,2017-11-07T07:13:42Z
2017-11-07T05:15:18Z,42.805,6.029,13.2952,4.59975,2471.942,2017-11-07T07:16:45Z
2017-11-07T05:18:21Z,42.805,6.029,13.2952,4.59970,2471.979,2017-11-07T07:19:48Z
2017-11-07T05:21:24Z,42.805,6.029,13.2952,4.59974,2471.957,2017-11-07T07:22:50Z
2017-11-07T05:24:27Z,42.805,6.029,13.2957,4.59972,2471.934,2017-11-07T07:25:53Z
2017-11-07T05:27:30Z,42.805,6.029,13.2957,4.59972,2471.957,2017-11-07T07:28:56Z
2017-11-07T05:30:32Z,42.805,6.029,13.2958,4.59973,2471.942,2017-11-07T07:31:59Z
2017-11-07T05:33:35Z,42.805,6.029,13.2961,4.59970,2471.957,2017-11-07T07:35:02Z
2017-11-07T05:36:38Z,42.805,6.029,13.2957,4.59978,2472.002,2017-11-07T07:38:05Z
2017-11-07T05:39:41Z,42.805,6.029,13.2962,4.59972,2471.964,2017-11-07T07:41:08Z
2017-11-07T05:42:44Z,42.805,6.029,13.2967,4.60012,2471.979,2017-11-07T07:44:11Z
2017-11-07T05:45:47Z,42.805,6.029,13.2961,4.59971,2471.979,2017-11-07T07:47:14Z
2017-11-07T05:48:50Z,42.805,6.029,13.2963,4.59971,2471.987,2017-11-07T07:50:16Z
2017-11-07T05:51:53Z,42.805,6.029,13.2961,4.59978,2472.002,2017-11-07T07:53:19Z
2017-11-07T05:54:56Z,42.805,6.029,13.2953,4.59980,2471.987,2017-11-07T07:56:22Z
2017-11-07T05:57:58Z,42.805,6.029,13.2957,4.59972,2472.024,2017-11-07T07:59:25Z
2017-11-07T06:01:01Z,42.805,6.029,13.2956,4.59973,2472.024,2017-11-07T08:02:28Z
2017-11-07T06:04:04Z,42.805,6.029,13.2961,4.59974,2472.024,2017-11-07T08:05:31Z
2017-11-07T06:07:07Z,42.805,6.029,13.2961,4.59979,2472.024,2017-11-07T08:08:34Z
2017-11-07T06:10:10Z,42.805,6.029,13.2958,4.59972,2472.01,2017-11-07T08:11:37Z
2017-11-07T06:13:13Z,42.805,6.029,13.2955,4.59975,2472.024,2017-11-07T08:14:40Z
2017-11-07T06:16:16Z,42.805,6.029,13.2959,4.59978,2472.002,2017-11-07T08:17:42Z
2017-11-07T06:19:19Z,42.805,6.029,13.2958,4.59980,2472.01,2017-11-07T08:20:45Z
2017-11-07T06:22:22Z,42.805,6.029,13.2959,4.59971,2471.987,2017-11-07T08:23:48Z
2017-11-07T06:25:24Z,42.805,6.029,13.2957,4.59978,2472.002,2017-11-07T08:26:51Z
2017-11-07T06:28:27Z,42.805,6.029,13.2960,4.59978,2472.032,2017-11-07T08:29:54Z
2017-11-07T06:31:30Z,42.805,6.029,13.2964,4.59980,2472.032,2017-11-07T08:32:57Z
2017-11-07T06:34:33Z,42.805,6.029,13.2976,4.59977,2472.069,2017-11-07T08:36:00Z
2017-11-07T06:37:36Z,42.805,6.029,13.2978,4.59977,2472.069,2017-11-07T08:39:03Z
2017-11-07T06:40:39Z,42.805,6.029,13.2967,4.59977,2472.069,2017-11-07T08:42:05Z
2017-11-07T06:43:42Z,42.805,6.029,13.2958,4.59977,2472.069,2017-11-07T08:45:08Z
2017-11-07T06:46:45Z,42.805,6.029,13.2958,4.59979,2472.032,2017-11-07T08:48:11Z
2017-11-07T06:49:48Z,42.805,6.029,13.2958,4.59979,2472.077,2017-11-07T08:51:14Z
2017-11-07T06:52:50Z,42.805,6.029,13.2969,4.59978,2472.069,2017-11-07T08:54:17Z
2017-11-07T06:55:53Z,42.805,6.029,13.2960,4.59978,2472.115,2017-11-07T08:57:20Z
2017-11-07T06:58:56Z,42.805,6.029,13.2964,4.59995,2472.055,2017-11-07T09:00:23Z
2017-11-07T07:01:59Z,42.805,6.029,13.2961,4.59980,2472.092,2017-11-07T09:03:26Z
2017-11-07T07:05:02Z,42.805,6.029,13.2967,4.59981,2472.069,2017-11-07T09:06:29Z
2017-11-07T07:08:05Z,42.805,6.029,13.2961,4.59975,2472.092,2017-11-07T09:09:31Z
2017-11-07T07:11:08Z,42.805,6.029,13.2957,4.59980,2472.115,2017-11-07T09:12:34Z
2017-11-07T07:14:11Z,42.805,6.029,13.2969,4.59981,2472.115,2017-11-07T09:15:37Z
2017-11-07T07:17:13Z,42.805,6.029,13.2961,4.59978,2472.077,2017-11-07T09:18:40Z
2017-11-07T07:20:16Z,42.805,6.029,13.2967,4.59976,2472.115,2017-11-07T09:21:43Z
2017-11-07T07:23:19Z,42.805,6.029,13.2973,4.60005,2472.123,2017-11-07T09:24:46Z
2017-11-07T07:26:22Z,42.805,6.029,13.2975,4.59989,2472.092,2017-11-07T09:27:49Z
2017-11-07T07:29:25Z,42.805,6.029,13.2969,4.59986,2472.115,2017-11-07T09:30:52Z
2017-11-07T07:32:28Z,42.805,6.029,13.2963,4.59975,2472.115,2017-11-07T09:33:55Z
2017-11-07T07:35:31Z,42.805,6.029,13.2959,4.59984,2472.115,2017-11-07T09:36:57Z
2017-11-07T07:38:34Z,42.805,6.029,13.2961,4.59975,2472.137,2017-11-07T09:40:00Z
2017-11-07T07:41:37Z,42.805,6.029,13.2961,4.59979,2472.1,2017-11-07T09:43:03Z
2017-11-07T07:44:39Z,42.805,6.029,13.2958,4.59977,2472.1,2017-11-07T09:46:06Z
2017-11-07T07:47:42Z,42.805,6.029,13.2958,4.59979,2472.152,2017-11-07T09:49:09Z
2017-11-07T07:50:45Z,42.805,6.029,13.2965,4.59989,2472.123,2017-11-07T09:52:12Z
2017-11-07T07:53:48Z,42.805,6.029,13.2963,4.60020,2472.16,2017-11-07T09:55:15Z
2017-11-07T07:56:51Z,42.805,6.029,13.2962,4.59982,2472.137,2017-11-07T09:58:18Z
2017-11-07T07:59:54Z,42.805,6.029,13.2958,4.59980,2472.115,2017-11-07T10:01:21Z
2017-11-07T08:02:57Z,42.805,6.029,13.2972,4.59977,2472.137,2017-11-07T10:04:23Z
2017-11-07T08:06:00Z,42.805,6.029,13.2960,4.59979,2472.16,2017-11-07T10:07:26Z
2017-11-07T08:09:03Z,42.805,6.029,13.2977,4.59978,2472.16,2017-11-07T10:10:29Z
2017-11-07T08:12:05Z,42.805,6.029,13.2968,4.59991,2472.16,2017-11-07T10:13:32Z
2017-11-07T08:15:08Z,42.805,6.029,13.2969,4.59984,2472.16,2017-11-07T10:16:35Z
2017-11-07T08:18:11Z,42.805,6.029,13.2958,4.59982,2472.16,2017-11-07T10:19:38Z
2017-11-07T08:21:14Z,42.805,6.029,13.2953,4.59988,2472.182,2017-11-07T10:22:41Z
2017-11-07T08:24:17Z,42.805,6.029,13.2958,4.59981,2472.137,2017-11-07T10:25:44Z
2017-11-07T08:27:20Z,42.805,6.029,13.2961,4.59985,2472.137,2017-11-07T10:28:47Z
2017-11-07T08:30:23Z,42.805,6.029,13.2965,4.59979,2472.145,2017-11-07T10:31:49Z
2017-11-07T08:33:26Z,42.805,6.029,13.2974,4.59983,2472.137,2017-11-07T10:34:52Z
2017-11-07T08:36:29Z,42.805,6.029,13.2966,4.59989,2472.16,2017-11-07T10:37:55Z
2017-11-07T08:39:32Z,42.805,6.029,13.2964,4.59992,2472.137,2017-11-07T10:40:58Z
2017-11-07T08:42:34Z,42.805,6.029,13.2976,4.59989,2472.16,2017-11-07T10:44:01Z
2017-11-07T08:45:37Z,42.805,6.029,13.2973,4.59982,2472.145,2017-11-07T10:47:04Z
2017-11-07T08:48:40Z,42.805,6.029,13.2968,4.59979,2472.16,2017-11-07T10:50:07Z
2017-11-07T08:51:43Z,42.805,6.029,13.2964,4.59978,2472.16,2017-11-07T10:53:10Z
2017-11-07T08:54:46Z,42.805,6.029,13.2975,4.59980,2472.16,2017-11-07T10:56:13Z
2017-11-07T08:57:49Z,42.805,6.029,13.2964,4.59978,2472.16,2017-11-07T10:59:15Z
2017-11-07T09:00:52Z,42.805,6.029,13.2969,4.59981,2472.137,2017-11-07T11:02:18Z
2017-11-07T09:03:55Z,42.805,6.029,13.2966,4.59983,2472.16,2017-11-07T11:05:21Z
2017-11-07T09:06:58Z,42.805,6.029,13.2966,4.59981,2472.198,2017-11-07T11:08:24Z
2017-11-07T09:10:00Z,42.805,6.029,13.2969,4.59991,2472.16,2017-11-07T11:11:27Z
2017-11-07T09:13:03Z,42.805,6.029,13.2975,4.59990,2472.182,2017-11-07T11:14:30Z
2017-11-07T09:16:06Z,42.805,6.029,13.2969,4.59992,2472.182,2017-11-07T11:17:33Z
2017-11-07T09:19:09Z,42.805,6.029,13.2965,4.60010,2472.16,2017-11-07T11:20:36Z
2017-11-07T09:22:12Z,42.805,6.029,13.2965,4.60029,2472.16,2017-11-07T11:23:39Z
2017-11-07T09:25:15Z,42.805,6.029,13.2980,4.59987,2472.198,2017-11-07T11:26:42Z
2017-11-07T09:28:18Z,42.805,6.029,13.2968,4.59985,2472.182,2017-11-07T11:29:44Z
2017-11-07T09:31:21Z,42.805,6.029,13.2979,4.59987,2472.182,2017-11-07T11:32:47Z
2017-11-07T09:34:24Z,42.805,6.029,13.2975,4.59983,2472.168,2017-11-07T11:35:50Z
2017-11-07T09:37:26Z,42.805,6.029,13.2996,4.59988,2472.16,2017-11-07T11:38:53Z
2017-11-07T09:40:29Z,42.805,6.029,13.2964,4.60009,2472.16,2017-11-07T11:41:56Z
2017-11-07T09:43:32Z,42.805,6.029,13.2988,4.60012,2472.168,2017-11-07T11:44:59Z
2017-11-07T09:46:35Z,42.805,6.029,13.2980,4.59989,2472.168,2017-11-07T11:48:02Z
2017-11-07T09:49:38Z,42.805,6.029,13.2978,4.60004,2472.182,2017-11-07T11:51:05Z
2017-11-07T09:52:41Z,42.805,6.029,13.3001,4.59999,2472.182,2017-11-07T11:54:08Z
2017-11-07T09:55:44Z,42.805,6.029,13.2985,4.59990,2472.19,2017-11-07T11:57:10Z
2017-11-07T09:58:47Z,42.805,6.029,13.2986,4.59994,2472.168,2017-11-07T12:00:13Z
2017-11-07T10:01:50Z,42.805,6.029,13.2966,4.59991,2472.182,2017-11-07T12:03:16Z
2017-11-07T10:04:53Z,42.805,6.029,13.2971,4.59993,2472.16,2017-11-07T12:06:19Z
2017-11-07T10:07:55Z,42.805,6.029,13.2975,4.59990,2472.145,2017-11-07T12:09:22Z
2017-11-07T10:10:58Z,42.805,6.029,13.2979,4.59990,2472.168,2017-11-07T12:12:25Z
2017-11-07T10:14:01Z,42.805,6.029,13.3010,4.59997,2472.205,2017-11-07T12:15:28Z
2017-11-07T10:17:04Z,42.805,6.029,13.2970,4.59991,2472.16,2017-11-07T12:18:31Z
2017-11-07T10:20:07Z,42.805,6.029,13.2976,4.59982,2472.16,2017-11-07T12:21:34Z
2017-11-07T10:23:10Z,42.805,6.029,13.2983,4.59989,2472.16,2017-11-07T12:24:36Z
2017-11-07T10:26:13Z,42.805,6.029,13.2964,4.59990,2472.168,2017-11-07T12:27:39Z
2017-11-07T10:29:16Z,42.805,6.029,13.2985,4.59998,2472.168,2017-11-07T12:30:42Z
2017-11-07T10:32:19Z,42.805,6.029,13.2992,4.60001,2472.123,2017-11-07T12:33:45Z
2017-11-07T10:35:21Z,42.805,6.029,13.2995,4.59998,2472.16,2017-11-07T12:36:48Z
2017-11-07T10:38:24Z,42.805,6.029,13.2979,4.59993,2472.168,2017-11-07T12:39:51Z
2017-11-07T10:41:27Z,42.805,6.029,13.2975,4.59992,2472.1,2017-11-07T12:42:54Z
2017-11-07T10:44:30Z,42.805,6.029,13.2993,4.60004,2472.182,2017-11-07T12:45:57Z
2017-11-07T10:47:33Z,42.805,6.029,13.2979,4.60011,2472.16,2017-11-07T12:49:00Z
2017-11-07T10:50:36Z,42.805,6.029,13.2979,4.59997,2472.16,2017-11-07T12:52:02Z
2017-11-07T10:53:39Z,42.805,6.029,13.2986,4.60006,2472.137,2017-11-07T12:55:05Z
2017-11-07T10:56:42Z,42.805,6.029,13.2978,4.60002,2472.137,2017-11-07T12:58:08Z
2017-11-07T10:59:45Z,42.805,6.029,13.3008,4.60002,2472.16,2017-11-07T13:01:11Z
2017-11-07T11:02:47Z,42.805,6.029,13.2991,4.60016,2472.137,2017-11-07T13:04:14Z
2017-11-07T11:05:50Z,42.805,6.029,13.2977,4.60017,2472.115,2017-11-07T13:07:17Z
2017-11-07T11:08:53Z,42.805,6.029,13.2973,4.60003,2472.16,2017-11-07T13:10:20Z
2017-11-07T11:11:56Z,42.805,6.029,13.2988,4.60002,2472.115,2017-11-07T13:13:23Z
2017-11-07T11:14:59Z,42.805,6.029,13.2988,4.60037,2472.1,2017-11-07T13:16:26Z
2017-11-07T11:18:02Z,42.805,6.029,13.2990,4.60057,2472.137,2017-11-07T13:19:29Z
2017-11-07T11:21:05Z,42.805,6.029,13.2960,4.60026,2472.115,2017-11-07T13:22:31Z
2017-11-07T11:24:08Z,42.805,6.029,13.2973,4.59986,2472.115,2017-11-07T13:25:34Z
2017-11-07T11:27:11Z,42.805,6.029,13.2988,4.60027,2472.137,2017-11-07T13:28:37Z
2017-11-07T11:30:13Z,42.805,6.029,13.2990,4.60019,2472.115,2017-11-07T13:31:40Z
2017-11-07T11:33:16Z,42.805,6.029,13.2995,4.60035,2472.092,2017-11-07T13:34:43Z
2017-11-07T11:36:19Z,42.805,6.029,13.3006,4.59990,2472.115,2017-11-07T13:37:46Z
2017-11-07T11:39:22Z,42.805,6.029,13.3016,4.60066,2472.115,2017-11-07T13:40:49Z
2017-11-07T11:42:25Z,42.805,6.029,13.2987,4.60013,2472.115,2017-11-07T13:43:52Z
2017-11-07T11:45:28Z,42.805,6.029,13.3002,4.60029,2472.115,2017-11-07T13:46:55Z
2017-11-07T11:48:31Z,42.805,6.029,13.2994,4.59995,2472.115,2017-11-07T13:49:57Z
2017-11-07T11:51:34Z,42.805,6.029,13.2979,4.60026,2472.092,2017-11-07T13:53:00Z
2017-11-07T11:54:37Z,42.805,6.029,13.3012,4.60009,2472.092,2017-11-07T13:56:03Z
2017-11-07T11:57:40Z,42.805,6.029,13.2995,4.59995,2472.077,2017-11-07T13:59:06Z
2017-11-07T12:00:42Z,42.805,6.029,13.2980,4.60030,2472.069,2017-11-07T14:02:09Z
2017-11-07T12:03:45Z,42.805,6.029,13.3019,4.60006,2472.115,2017-11-07T14:05:12Z
2017-11-07T12:06:48Z,42.805,6.029,13.2973,4.60042,2472.092,2017-11-07T14:08:15Z
2017-11-07T12:09:51Z,42.805,6.029,13.2988,4.60069,2472.115,2017-11-07T14:11:18Z
2017-11-07T12:12:54Z,42.805,6.029,13.2978,4.60049,2472.115,2017-11-07T14:14:21Z
2017-11-07T12:15:57Z,42.805,6.029,13.2993,4.60056,2472.107,2017-11-07T14:17:23Z
2017-11-07T12:19:00Z,42.805,6.029,13.2970,4.60066,2472.115,2017-11-07T14:20:26Z
2017-11-07T12:22:03Z,42.805,6.029,13.2970,4.60046,2472.092,2017-11-07T14:23:29Z
2017-11-07T12:25:06Z,42.805,6.029,13.2959,4.60027,2472.092,2017-11-07T14:26:32Z
2017-11-07T12:28:08Z,42.805,6.029,13.2966,4.60007,2472.115,2017-11-07T14:29:35Z
2017-11-07T12:31:11Z,42.805,6.029,13.2958,4.60010,2472.069,2017-11-07T14:32:38Z
2017-11-07T12:34:14Z,42.805,6.029,13.2958,4.59998,2472.092,2017-11-07T14:35:41Z
2017-11-07T12:37:17Z,42.805,6.029,13.2951,4.60004,2472.069,2017-11-07T14:38:44Z
2017-11-07T12:40:20Z,42.805,6.029,13.2968,4.60015,2472.069,2017-11-07T14:41:47Z
2017-11-07T12:43:23Z,42.805,6.029,13.2964,4.60009,2472.069,2017-11-07T14:44:50Z
2017-11-07T12:46:26Z,42.805,6.029,13.2958,4.60001,2472.069,2017-11-07T14:47:52Z
2017-11-07T12:49:29Z,42.805,6.029,13.2956,4.60002,2472.047,2017-11-07T14:50:55Z
2017-11-07T12:52:32Z,42.805,6.029,13.2950,4.60004,2472.055,2017-11-07T14:53:58Z
2017-11-07T12:55:34Z,42.805,6.029,13.2961,4.59990,2472.092,2017-11-07T14:57:01Z
2017-11-07T12:58:37Z,42.805,6.029,13.2954,4.59985,2472.069,2017-11-07T15:00:04Z
2017-11-07T13:01:40Z,42.805,6.029,13.2950,4.59990,2472.069,2017-11-07T15:03:07Z
2017-11-07T13:04:43Z,42.805,6.029,13.2953,4.59994,2472.069,2017-11-07T15:06:10Z
2017-11-07T13:07:46Z,42.805,6.029,13.2957,4.59992,2472.047,2017-11-07T15:09:13Z
2017-11-07T13:10:49Z,42.805,6.029,13.2953,4.59999,2472.055,2017-11-07T15:12:16Z
2017-11-07T13:13:52Z,42.805,6.029,13.2959,4.59992,2472.069,2017-11-07T15:15:18Z
2017-11-07T13:16:55Z,42.805,6.029,13.2957,4.60020,2472.047,2017-11-07T15:18:21Z
2017-11-07T13:19:58Z,42.805,6.029,13.2967,4.60021,2472.047,2017-11-07T15:21:24Z
2017-11-07T13:23:00Z,42.805,6.029,13.2964,4.60029,2472.069,2017-11-07T15:24:27Z
2017-11-07T13:26:03Z,42.805,6.029,13.2963,4.60041,2472.047,2017-11-07T15:27:30Z
2017-11-07T13:29:06Z,42.805,6.029,13.2960,4.60015,2472.024,2017-11-07T15:30:33Z
2017-11-07T13:32:09Z,42.805,6.029,13.2954,4.60025,2472.047,2017-11-07T15:33:36Z
2017-11-07T13:35:12Z,42.805,6.029,13.2961,4.60015,2472.032,2017-11-07T15:36:39Z
2017-11-07T13:38:15Z,42.805,6.029,13.2962,4.60003,2472.032,2017-11-07T15:39:42Z
2017-11-07T13:41:18Z,42.805,6.029,13.2950,4.59987,2472.069,2017-11-07T15:42:44Z
2017-11-07T13:44:21Z,42.805,6.029,13.2949,4.59987,2472.069,2017-11-07T15:45:47Z
2017-11-07T13:47:24Z,42.805,6.029,13.2958,4.59987,2472.024,2017-11-07T15:48:50Z
2017-11-07T13:50:27Z,42.805,6.029,13.2954,4.59991,2472.047,2017-11-07T15:51:53Z
2017-11-07T13:53:29Z,42.805,6.029,13.2950,4.59995,2472.01,2017-11-07T15:54:56Z
2017-11-07T13:56:33Z,42.805,6.029,13.2973,4.60023,2472.024,2017-11-07T15:57:59Z
2017-11-07T13:59:36Z,42.805,6.029,13.2975,4.60014,2472.01,2017-11-07T16:01:02Z
2017-11-07T14:02:39Z,42.805,6.029,13.2968,4.60012,2472.01,2017-11-07T16:04:05Z
2017-11-07T14:05:41Z,42.805,6.029,13.2958,4.60017,2472.024,2017-11-07T16:07:08Z
2017-11-07T14:08:44Z,42.805,6.029,13.2970,4.60018,2471.987,2017-11-07T16:10:11Z
2017-11-07T14:11:47Z,42.805,6.029,13.2971,4.60023,2472.002,2017-11-07T16:13:14Z
2017-11-07T14:14:50Z,42.805,6.029,13.2964,4.60011,2472.01,2017-11-07T16:16:17Z
2017-11-07T14:17:53Z,42.805,6.029,13.2948,4.60011,2472.024,2017-11-07T16:19:20Z
2017-11-07T14:20:56Z,42.805,6.029,13.2975,4.60011,2471.987,2017-11-07T16:22:23Z
2017-11-07T14:23:59Z,42.805,6.029,13.2959,4.60029,2471.987,2017-11-07T16:25:25Z
2017-11-07T14:27:02Z,42.805,6.029,13.2968,4.60007,2471.979,2017-11-07T16:28:28Z
2017-11-07T14:30:05Z,42.805,6.029,13.2968,4.60021,2471.987,2017-11-07T16:31:31Z
2017-11-07T14:33:07Z,42.805,6.029,13.2976,4.60025,2472.002,2017-11-07T16:34:34Z
2017-11-07T14:36:10Z,42.805,6.029,13.2981,4.60009,2471.987,2017-11-07T16:37:37Z
2017-11-07T14:39:13Z,42.805,6.029,13.2967,4.60010,2471.964,2017-11-07T16:40:40Z
2017-11-07T14:42:16Z,42.805,6.029,13.2985,4.60016,2472.002,2017-11-07T16:43:43Z
2017-11-07T14:45:19Z,42.805,6.029,13.2972,4.60009,2471.979,2017-11-07T16:46:46Z
2017-11-07T14:48:22Z,42.805,6.029,13.2968,4.60016,2471.987,2017-11-07T16:49:49Z
2017-11-07T14:51:25Z,42.805,6.029,13.2966,4.60015,2471.979,2017-11-07T16:52:51Z
2017-11-07T14:54:28Z,42.805,6.029,13.2965,4.60013,2471.957,2017-11-07T16:55:54Z
2017-11-07T14:57:31Z,42.805,6.029,13.2950,4.60005,2472.002,2017-11-07T16:58:57Z